Ashtabula, OH

11:25 PM EDT on July 20, 2017 (GMT -0400)
Ashtabula County

Weather History for KHZY - November, 2012

Change the Weather History Date:

Thursday, November 8, 2012

  Actual Average (KGKJ) Record (KGKJ)
Temperature  
Mean Temperature 34 °F -  
Max Temperature 43 °F 47 °F 70 °F (1975)
Min Temperature 24 °F 32 °F 20 °F (1960)
Degree Days  
Heating Degree Days 32    
Moisture  
Dew Point 26 °F    
Average Humidity 69    
Maximum Humidity 85    
Minimum Humidity 53    
Precipitation  
Precipitation 0.00 in - - ()
Sea Level Pressure  
Sea Level Pressure 30.16 in    
Wind  
Wind Speed 3 mph (NW)    
Max Wind Speed 10 mph    
Max Gust Speed 17 mph    
Visibility 10 miles    
Events      
Averages and records for this station are not official NWS values.
T = Trace of Precipitation, MM = Missing Value Source: NWS Daily Summary

Daily Weather History Graph

Daily Weather History Graph

Search for Another Location

Airport or City:

Trip Planner

Search our weather history database for the weather conditions in past years. The results will help you decide how hot, cold, wet, or windy it might be!

Date:

Astronomy

Nov. 08, 2012 Rise Set
Actual Time 7:04 AM EST 5:08 PM EST
Civil Twilight 6:34 AM EST 5:37 PM EST
Nautical Twilight 6:01 AM EST 6:11 PM EST
Astronomical Twilight 5:28 AM EST 6:43 PM EST
Moon 12:52 AM EST (11/8) 1:53 PM EST (11/8)
Length of Visible Light 11h 03m
Length of Day
10h 04m
Waning Crescent, 33% of the Moon is Illuminated
Nov 8
Waning Crescent
Nov 13
New
Nov 20
First Quarter
Nov 28
Full
Dec 6
Last Quarter

Hourly Weather History & Observations

Time (EST) Temp. Windchill Dew Point Humidity Pressure Visibility Wind Dir Wind Speed Gust Speed Precip Events Conditions
12:53 AM 30.0 °F - 21.0 °F 69% 30.12 in 10.0 mi Calm Calm - N/A   Partly Cloudy
1:53 AM 27.0 °F - 21.9 °F 81% 30.12 in 10.0 mi Calm Calm - N/A   Clear
2:53 AM 26.1 °F - 21.0 °F 81% 30.12 in 10.0 mi Calm Calm - N/A   Clear
3:17 AM 24.8 °F - 19.4 °F 80% 30.09 in 10.0 mi Calm Calm - N/A   Mostly Cloudy
3:53 AM 27.0 °F - 23.0 °F 85% 30.13 in 10.0 mi Calm Calm - N/A   Mostly Cloudy
4:53 AM 27.0 °F - 23.0 °F 85% 30.14 in 10.0 mi Calm Calm - N/A   Scattered Clouds
5:53 AM 26.1 °F - 21.0 °F 81% 30.15 in 10.0 mi Calm Calm - N/A   Clear
6:53 AM 25.0 °F - 19.9 °F 81% 30.17 in 10.0 mi Calm Calm - N/A   Clear
7:53 AM 27.0 °F - 23.0 °F 85% 30.19 in 10.0 mi Calm Calm - N/A   Clear
8:53 AM 37.0 °F 34.5 °F 27.0 °F 67% 30.20 in 10.0 mi North 3.5 mph - N/A   Clear
9:53 AM 39.9 °F 33.4 °F 26.1 °F 58% 30.21 in 10.0 mi North 10.4 mph 17.3 mph N/A   Scattered Clouds
10:53 AM 41.0 °F 35.8 °F 26.1 °F 55% 30.21 in 10.0 mi North 8.1 mph - N/A   Partly Cloudy
11:53 AM 42.1 °F 38.4 °F 26.1 °F 53% 30.19 in 10.0 mi Variable 5.8 mph - N/A   Clear
12:53 PM 42.1 °F 37.7 °F 27.0 °F 55% 30.17 in 10.0 mi NW 6.9 mph - N/A   Clear
1:53 PM 43.0 °F 37.7 °F 27.0 °F 53% 30.17 in 10.0 mi NNW 9.2 mph - N/A   Clear
2:53 PM 42.1 °F 36.1 °F 27.0 °F 55% 30.17 in 10.0 mi NNW 10.4 mph - N/A   Clear
3:13 PM 42.8 °F 38.6 °F 28.4 °F 57% 30.14 in 10.0 mi WNW 6.9 mph - N/A   Mostly Cloudy
3:34 PM 39.2 °F 35.0 °F 26.6 °F 61% 30.15 in 10.0 mi NW 5.8 mph - N/A   Scattered Clouds
3:53 PM 39.9 °F 34.5 °F 28.0 °F 63% 30.17 in 10.0 mi NNW 8.1 mph - N/A   Scattered Clouds
4:04 PM 39.2 °F 33.0 °F 28.4 °F 65% 30.15 in 10.0 mi NW 9.2 mph - N/A   Mostly Cloudy
4:53 PM 39.0 °F 32.8 °F 28.0 °F 65% 30.19 in 10.0 mi NW 9.2 mph - N/A   Overcast
5:53 PM 39.0 °F 35.7 °F 28.0 °F 65% 30.19 in 10.0 mi West 4.6 mph - N/A   Overcast
6:53 PM 39.9 °F 35.8 °F 30.0 °F 68% 30.19 in 10.0 mi WNW 5.8 mph - N/A   Overcast
7:53 PM 39.9 °F 36.7 °F 30.0 °F 68% 30.18 in 10.0 mi West 4.6 mph - N/A   Overcast
8:53 PM 39.0 °F - 30.9 °F 73% 30.18 in 10.0 mi Calm Calm - N/A   Overcast
9:53 PM 39.0 °F 35.7 °F 30.9 °F 73% 30.18 in 10.0 mi West 4.6 mph - N/A   Overcast
10:53 PM 39.0 °F - 30.9 °F 73% 30.17 in 10.0 mi Calm Calm - N/A   Overcast
11:53 PM 37.9 °F 35.5 °F 30.9 °F 76% 30.17 in 10.0 mi WSW 3.5 mph - N/A   Overcast